COSMOS 711

Satellite information

Favourite Embed

Satellite Type and Status

PAYLOADIN ORBIT

Key statistics

Satellite COSMOS 711 at a glance.

Uptime

18450

Days in orbit

Revolutions

≈ 12.5

Per day

Orbit

LEO

Low Earth Orbit

Inclination

74.0

Latest

Satellite identification and parameters

Extended collection of information and parameters for COSMOS 711.

Object identification

Identified? True

Debris? False

Object name: COSMOS 711

International designator: 1975-016A

Object number (NORAD): 7678

Object ID (CCSDS): 7678

Country: COMMONWEALTH OF INDEPENDENT STATES (CIS)

Current information (Y/N): Y

RCS size: MEDIUM

Orbital parameters

Period: 115.47 minutes

Inclination: 74.0007 deg

SMA: 7854.868 km

Apoapsis: 1492.399 km

Periapsis: 1461.067 km

RAAN: 79.839 deg

Eccentricy: 0.00199443

Argument of periapsis: 347.8624 deg

Mean anomaly: 124.7264 deg

Mean motion: 12.47080273 rev/day

Mean motion (dot): 0.00000016 rev/day2

B* drag term: 0.00022061968 1/REarth

Two-line elements (TLE)

Creation date: Sept. 3, 2025, 2:21 a.m.

Reference frame: TEME

Reference center: EARTH

Epoch: Sept. 2, 2025, 11:04 p.m. UTC

TLE line 0: 0 COSMOS 711

TLE line 1: 1 07678U 75016A 25245.96113941 .00000016 00000-0 22062-3 0 9991

TLE line 2: 2 07678 74.0007 79.8390 0019944 347.8624 124.7264 12.47080273299522

Live tracking on map

Real-time ground track for satellite COSMOS 711.

In-orbit conjunctions

There are no conjunctions computed for COSMOS 711, at the moment. Check back to stay up to date, as we update our databases every day.

Go to all conjunctions

Associated space launch

Military communications satellites

COSMOS 711 was lifted into orbit during the mission ‘Kosmos-3M | Strela-1M 81-88’, on board a Kosmos-3M space rocket.

The launch took place on Feb. 28, 1975, 2:01 p.m. from 132/2.

For more information about the launch, click the button.

Launch to space Kosmos-3M | Strela-1M 81-88
Kosmos-3M | Strela-1M 81-88

Agency: N/A

Status: Launch Successful

Launch date: Feb. 28, 1975, 2:01 p.m. UTC

Rocket: Kosmos-3M

Launch pad: 132/2

Location: Plesetsk Cosmodrome, Russian Federation

...

Latest news about this satellite

There are no fresh news available about this satellite. Check back as we update our databases every day.


Newsletter sign-up

Weekly statistics, charts and insights to help you stay on top of the space industry.